Date String (YYYY-MM-DD hh:mm:ss) UTC,Instrument flags,Ambient pressure (hPa),Sample flow (lpm),Bypass flow (lpm),Sample temperature (°C),Ambient temperature (°C),ASC tube jacket temperature (°C),LED temperature (°C),Box temperature (°C),Sample RH (%),Span deviation,Mass concentration (μg/m³),Mass concentration (μg/m³),Mass concentration (μg/m³)
DateTimeUTC,F1_M11,P_M11,Q1_M11,Q2_M11,T1_M11,T2_M11,T3_M11,T4_M11,T5_M11,U1_M11,ZSPAN_M11,X2_M11,X0_M11,X1_M11
2021-10-08 13:00:00,,0827.8,5.01,0.00,30.3,29.4,00.0,39.4,32.1,14.6,0004.3,0006.81,0023.14,0005.00
2021-10-08 13:01:00,,0827.7,5.00,0.00,30.3,29.5,00.0,39.4,32.0,14.5,0004.6,0006.75,0023.55,0004.98
2021-10-08 13:02:00,,0827.7,5.00,0.00,30.3,29.5,00.0,39.4,32.0,14.5,0004.7,0006.69,0022.45,0004.97
2021-10-08 13:03:00,,0827.7,5.02,0.00,30.3,29.5,00.0,39.4,32.0,14.5,0004.5,0006.61,0022.15,0004.94
2021-10-08 13:04:00,,0827.8,4.99,0.00,30.3,29.5,00.0,39.4,32.1,14.5,0004.1,0006.57,0022.46,0004.91
2021-10-08 13:05:00,,0827.7,4.99,0.00,30.4,29.5,00.0,39.4,32.1,14.5,0004.0,0006.54,0022.09,0004.89
2021-10-08 13:06:00,,0827.7,5.01,0.00,30.4,29.5,00.0,39.5,32.1,14.5,0003.9,0006.45,0022.32,0004.87
2021-10-08 13:07:00,,0827.7,5.00,0.00,30.4,29.4,00.0,39.5,32.1,14.5,0003.7,0006.42,0022.95,0004.87
2021-10-08 13:08:00,,0827.7,5.00,0.00,30.4,29.4,00.0,39.5,32.1,14.5,0003.7,0006.41,0023.70,0004.88
2021-10-08 13:09:00,,0827.8,4.99,0.00,30.4,29.4,00.0,39.5,32.1,14.5,0002.6,0006.43,0023.83,0004.88
2021-10-08 13:10:00,,0827.9,5.00,0.00,30.4,29.4,00.0,39.5,32.1,14.5,0001.5,0006.43,0022.99,0004.89
2021-10-08 13:11:00,,0827.9,5.00,0.00,30.4,29.4,00.0,39.5,32.1,14.5,0001.2,0006.37,0021.93,0004.88
2021-10-08 13:12:00,,0827.9,5.02,0.00,30.4,29.4,00.0,39.5,32.1,14.5,0000.7,0006.36,0021.65,0004.88
2021-10-08 13:13:00,,0827.9,5.00,0.00,30.4,29.4,00.0,39.5,32.1,14.5,0000.2,0006.42,0021.61,0004.87
2021-10-08 13:14:00,,0828.0,5.00,0.00,30.4,29.5,00.0,39.5,32.1,14.5,0000.4,0006.47,0020.61,0004.88
2021-10-08 13:15:00,,0828.0,5.00,0.00,30.4,29.5,00.0,39.5,32.1,14.5,0000.9,0006.50,0020.21,0004.89
2021-10-08 13:16:00,,0827.9,5.01,0.00,30.4,29.5,00.0,39.5,32.1,14.5,0000.1,0006.45,0019.78,0004.87
2021-10-08 13:17:00,,0827.9,4.99,0.00,30.4,29.5,00.0,39.5,32.1,14.5,0000.3,0006.43,0019.14,0004.87
2021-10-08 13:18:00,,0827.9,5.01,0.00,30.4,29.5,00.0,39.5,32.1,14.5,0000.5,0006.42,0018.47,0004.87
2021-10-08 13:19:00,,0827.9,5.00,0.00,30.4,29.5,00.0,39.5,32.1,14.5,-000.1,0006.47,0018.44,0004.86
2021-10-08 13:20:00,,0827.9,5.00,0.00,30.4,29.5,00.0,39.5,32.1,14.5,0000.9,0006.43,0017.21,0004.86
2021-10-08 13:21:00,,0827.9,5.00,0.00,30.4,29.5,00.0,39.5,32.1,14.5,0001.3,0006.40,0017.81,0004.87
2021-10-08 13:22:00,,0828.0,5.03,0.00,30.4,29.5,00.0,39.5,32.1,14.5,0000.8,0006.46,0017.92,0004.88
2021-10-08 13:23:00,,0827.8,5.00,0.00,30.4,29.5,00.0,39.5,32.1,14.5,0001.7,0006.46,0018.14,0004.89
2021-10-08 13:24:00,,0827.9,4.99,0.00,30.4,29.5,00.0,39.5,32.1,14.4,0002.6,0006.42,0018.09,0004.89
2021-10-08 13:25:00,,0827.9,4.99,0.00,30.4,29.5,00.0,39.5,32.1,14.4,0002.1,0006.36,0017.93,0004.90
2021-10-08 13:26:00,,0827.8,4.99,0.00,30.4,29.5,00.0,39.5,32.1,14.4,0002.2,0006.39,0019.13,0004.89
2021-10-08 13:27:00,,0827.8,5.01,0.00,30.4,29.5,00.0,39.5,32.1,14.5,0002.9,0006.37,0019.87,0004.87
2021-10-08 13:28:00,,0827.8,5.00,0.00,30.4,29.5,00.0,39.5,32.1,14.5,0002.5,0006.35,0020.13,0004.81
2021-10-08 13:29:00,,0827.8,5.00,0.00,30.4,29.5,00.0,39.5,32.1,14.5,0002.7,0006.23,0019.46,0004.74
2021-10-08 13:30:00,,0827.7,4.99,0.00,30.4,29.5,00.0,39.5,32.1,14.4,0004.0,0006.09,0018.40,0004.67
2021-10-08 13:31:00,,0827.8,5.00,0.00,30.4,29.5,00.0,39.5,32.1,14.4,0002.7,0006.00,0018.84,0004.60
2021-10-08 13:32:00,,0827.7,5.01,0.00,30.4,29.5,00.0,39.5,32.1,14.5,0001.1,0005.97,0018.51,0004.54
2021-10-08 13:33:00,,0827.7,5.01,0.00,30.4,29.5,00.0,39.6,32.1,14.5,0001.7,0005.90,0018.26,0004.49
2021-10-08 13:34:00,,0827.8,4.99,0.00,30.4,29.5,00.0,39.6,32.2,14.5,0001.7,0005.90,0017.95,0004.44
2021-10-08 13:35:00,,0827.9,5.00,0.00,30.4,29.5,00.0,39.6,32.2,14.5,0001.6,0005.83,0018.29,0004.40
2021-10-08 13:36:00,,0827.8,5.00,0.00,30.4,29.5,00.0,39.6,32.2,14.5,0001.8,0005.77,0018.40,0004.34
2021-10-08 13:37:00,,0827.7,5.00,0.00,30.4,29.5,00.0,39.6,32.1,14.4,0000.7,0005.62,0017.51,0004.29
2021-10-08 13:38:00,,0827.7,4.99,0.00,30.4,29.5,00.0,39.6,32.1,14.4,0000.0,0005.59,0018.47,0004.26
2021-10-08 13:39:00,,0827.7,5.01,0.00,30.5,29.5,00.0,39.6,32.1,14.4,0002.7,0005.58,0018.91,0004.23
2021-10-08 13:40:00,,0827.7,5.01,0.00,30.4,29.5,00.0,39.6,32.2,14.4,0003.4,0005.65,0019.71,0004.23
2021-10-08 13:41:00,,0827.7,5.00,0.00,30.5,29.5,00.0,39.6,32.1,14.4,0002.6,0005.68,0020.16,0004.21
2021-10-08 13:42:00,,0827.7,5.00,0.00,30.5,29.5,00.0,39.6,32.2,14.4,0001.9,0005.73,0020.62,0004.19
2021-10-08 13:43:00,,0827.7,5.00,0.00,30.5,29.5,00.0,39.6,32.2,14.4,0000.7,0005.70,0020.70,0004.15
2021-10-08 13:44:00,,0827.8,5.01,0.00,30.5,29.6,00.0,39.6,32.2,14.4,0000.0,0005.67,0021.63,0004.12
2021-10-08 13:45:00,,0827.8,5.00,0.00,30.5,29.6,00.0,39.6,32.2,14.4,0000.0,0005.63,0021.76,0004.10
2021-10-08 13:46:00,,0827.9,4.99,0.00,30.5,29.6,00.0,39.6,32.2,14.4,0000.0,0005.59,0020.93,0004.06
2021-10-08 13:47:00,,0828.0,4.99,0.00,30.5,29.6,00.0,39.6,32.2,14.4,0000.0,0005.57,0022.40,0004.03
2021-10-08 13:48:00,,0828.0,5.00,0.00,30.5,29.6,00.0,39.6,32.2,14.5,0000.0,0005.63,0022.75,0004.00
2021-10-08 13:49:00,,0828.1,5.01,0.00,30.5,29.6,00.0,39.6,32.2,14.8,0000.0,0005.63,0020.78,0003.97
2021-10-08 13:50:00,,0828.1,5.00,0.00,30.5,29.6,00.0,39.6,32.2,14.7,0000.0,0005.58,0019.90,0003.96
2021-10-08 13:51:00,,0828.1,4.99,0.00,30.5,29.6,00.0,39.6,32.2,14.7,0000.0,0005.54,0019.44,0003.94
2021-10-08 13:52:00,,0828.0,5.01,0.00,30.5,29.6,00.0,39.6,32.2,14.6,0000.0,0005.48,0019.50,0003.91
2021-10-08 13:53:00,,0828.0,5.01,0.00,30.5,29.6,00.0,39.6,32.2,14.6,0000.0,0005.36,0018.94,0003.87
2021-10-08 13:54:00,,0828.0,5.00,0.00,30.5,29.6,00.0,39.6,32.2,14.7,0000.0,0005.26,0019.45,0003.85
2021-10-08 13:55:00,,0828.0,4.99,0.00,30.5,29.6,00.0,39.6,32.2,14.7,0000.0,0005.23,0019.04,0003.81
2021-10-08 13:56:00,,0828.1,5.01,0.00,30.5,29.6,00.0,39.6,32.2,14.7,0000.0,0005.17,0019.09,0003.78
2021-10-08 13:57:00,,0828.1,5.00,0.00,30.5,29.6,00.0,39.7,32.2,14.6,0000.0,0005.17,0019.15,0003.76
2021-10-08 13:58:00,,0828.2,4.99,0.00,30.6,29.6,00.0,39.7,32.3,14.6,0000.0,0005.11,0017.73,0003.75
2021-10-08 13:59:00,,0828.2,5.00,0.00,30.6,29.6,00.0,39.7,32.3,14.6,0000.0,0005.10,0016.59,0003.77
